ONEWEB-0288, 49078

Orbit data source: Space-Track

ONEWEB-0288, 49078 is a payload satellite owned by One Web (NAA) (UK) in LEO that was launched on Sat, 21 Aug 2021 UTC via a SOYUZ-2-1B launch vehicle from the Tyuratam Missile And Space Complex (TTMTR). Payload-class satellites include a variety of spacecraft equipped with specific instruments for various scientific and technological missions. These include communications satellites like Starlink; space stations such as the ISS; scientific satellites like the Hubble; Earth observation satellites from companies like Planet Labs, Umbra, and HawkEye 360; GPS; miniature CubeSats for education and research; and military/defense satellites.

Loading next visibility...
Identifier
49078, 2021-075D
Orbit
LEO
Country
Flag of UKUK
Related business
Manufacturer
One Web
Mission
Operational Commercial Communications
Bus & Motor
ARROW, Unknown motor
Mass
148 kg wet, ~140 kg dry
Launch date (UTC)
2021-08-21 (5 years ago)
Launch vehicle
SOYUZ-2-1B
Launch site
Tyuratam Missile And Space Complex (TTMTR)
Object type
Payload
Rocket body
Debris
Shape & HBR
Trap Box + 2 Pan, 6.7 m
Radar Cross Section
3.464 m², Large (>1 m²)

Expand to show TLE details & history
Last TLE update: 1 day ago

TLE from 1 day ago
0 ONEWEB-0288
1 49078U 21075D   26175.18504799  .00000052  00000-0  11019-3 0  9999
2 49078  87.8947 349.2631 0002062  91.2749 268.8616 13.12443039236102
Epoch: 2026-06-24T04:26Z
TLE epoch observation values (Epoch: 2026-06-24T04:26:28.146Z)
Latitude
0.00001°
Longitude
10.29993°
Altitude
1,216.645 km
Speed
7.246 km/s
True Right ascension
23h 17m 03s
True Declination
0° 00' 00"
Sunlit
Object was in daylight at epoch
Visualization orbit readout
Latitude
Unknown
Longitude
Unknown
Altitude
Unknown
Speed
Unknown
Apparent Right ascension
Unknown
Apparent Declination
Unknown
Sunlit
N/A
Visualization observer readout
Local Sidereal Time
15:26:37
Azimuth
Unknown
Elevation
Unknown
Doppler factor
Unknown
Orbital elements
Apogee altitude
1,212.405 km
Perigee altitude
1,209.275 km
Semi-major axis
7,588.977 km
Eccentricity
0.00021
Inclination
87.8947°
RAAN
349.2631°
Arg. of periapsis
91.2749°
True anomaly
268.83798°
Mean anomaly
268.8616°
Eccentric anomaly
268.84979°
Mean motion
3.28298 °/min
Orbital period
109.66 mins
BSTAR
0.00011019
Loading maneuver chart data...
Computing Atmospheric mass density...
Loading historical data...
Loading historical data...
Loading historical data...
Loading historical data...
Loading historical data...
Loading historical data...
Loading historical data...

Documentation

Showing up to 5 results
|